TimeCDT,TemperatureF,Dew PointF,Humidity,Sea Level PressureIn,VisibilityMPH,Wind Direction,Wind SpeedMPH,Gust SpeedMPH,PrecipitationIn,Events,Conditions,WindDirDegrees,DateUTC
12:52 AM,70.0,63.0,78,29.69,10.0,South,12.7,-,N/A,,Clear,170,2012-10-25 05:52:00
1:52 AM,70.0,62.1,76,29.68,10.0,South,10.4,-,N/A,,Clear,170,2012-10-25 06:52:00
2:52 AM,70.0,62.1,76,29.68,10.0,South,12.7,-,N/A,,Overcast,180,2012-10-25 07:52:00
3:52 AM,70.0,62.1,76,29.65,10.0,South,13.8,23.0,N/A,,Partly Cloudy,180,2012-10-25 08:52:00
4:52 AM,70.0,61.0,73,29.63,10.0,South,15.0,-,N/A,,Clear,180,2012-10-25 09:52:00
5:52 AM,69.1,61.0,75,29.65,10.0,South,15.0,-,N/A,,Clear,180,2012-10-25 10:52:00
8:52 AM,69.1,62.1,78,29.63,10.0,South,12.7,-,N/A,,Overcast,180,2012-10-25 13:52:00
9:01 AM,69.8,62.6,78,29.65,10.0,South,16.1,21.9,N/A,,Overcast,190,2012-10-25 14:01:00
9:52 AM,71.1,62.1,73,29.62,10.0,South,20.7,29.9,N/A,,Overcast,180,2012-10-25 14:52:00
10:14 AM,71.6,62.6,73,29.62,10.0,South,18.4,32.2,N/A,,Overcast,190,2012-10-25 15:14:00
10:35 AM,62.6,57.2,82,29.65,10.0,West,17.3,-,N/A,,Overcast,270,2012-10-25 15:35:00
10:52 AM,60.1,55.0,83,29.65,10.0,West,20.7,-,N/A,,Overcast,280,2012-10-25 15:52:00
11:16 AM,57.2,53.6,88,29.68,10.0,West,17.3,-,N/A,,Overcast,270,2012-10-25 16:16:00
11:52 AM,52.0,48.9,89,29.72,4.0,NW,20.7,26.5,0.00,,Overcast,310,2012-10-25 16:52:00
12:06 PM,50.0,48.2,94,29.73,2.5,NW,17.3,-,0.00,Rain,Light Rain,310,2012-10-25 17:06:00
12:15 PM,48.2,48.2,100,29.73,4.0,WNW,18.4,28.8,0.01,Rain,Light Rain,300,2012-10-25 17:15:00
12:24 PM,48.2,46.4,93,29.74,7.0,NW,19.6,31.1,0.01,Rain,Light Rain,310,2012-10-25 17:24:00
12:33 PM,46.4,46.4,100,29.75,4.0,WNW,21.9,29.9,0.01,Rain,Light Rain,300,2012-10-25 17:33:00
12:40 PM,46.4,46.4,100,29.76,4.0,WNW,20.7,27.6,0.01,Rain,Light Rain,300,2012-10-25 17:40:00
12:52 PM,46.9,46.9,100,29.77,3.0,WNW,17.3,31.1,0.02,Rain,Light Rain,300,2012-10-25 17:52:00
1:11 PM,46.4,46.4,100,29.77,3.0,NW,17.3,25.3,0.02,Rain,Light Rain,310,2012-10-25 18:11:00
1:25 PM,46.4,46.4,100,29.77,7.0,WNW,20.7,27.6,0.02,Rain,Light Rain,300,2012-10-25 18:25:00
1:29 PM,46.4,46.4,100,29.77,8.0,WNW,21.9,28.8,0.02,Rain,Light Rain,300,2012-10-25 18:29:00
1:52 PM,46.0,46.0,100,29.79,10.0,NW,20.7,28.8,0.02,,Overcast,310,2012-10-25 18:52:00
3:52 PM,44.1,43.0,96,29.90,10.0,NW,13.8,32.2,0.00,,Overcast,310,2012-10-25 20:52:00
4:52 PM,44.1,37.9,79,29.95,10.0,NW,17.3,32.2,N/A,,Overcast,320,2012-10-25 21:52:00
5:52 PM,44.1,37.0,76,29.99,10.0,NW,16.1,27.6,N/A,,Overcast,320,2012-10-25 22:52:00
6:52 PM,42.1,35.1,76,30.06,10.0,NW,20.7,27.6,N/A,,Overcast,310,2012-10-25 23:52:00
8:52 PM,41.0,32.0,70,30.14,10.0,NW,15.0,35.7,N/A,,Overcast,320,2012-10-26 01:52:00
9:52 PM,39.9,30.9,70,30.17,10.0,NW,19.6,31.1,N/A,,Overcast,320,2012-10-26 02:52:00
9:59 PM,39.2,30.2,70,30.17,10.0,NNW,16.1,31.1,N/A,,Overcast,330,2012-10-26 02:59:00
10:48 PM,39.2,30.2,70,30.20,10.0,NW,17.3,29.9,N/A,,Overcast,320,2012-10-26 03:48:00
10:52 PM,39.9,28.9,65,30.21,10.0,NW,15.0,29.9,N/A,,Overcast,320,2012-10-26 03:52:00